Weather

DAILY 7 DAY TOTAL
onrain

Note: Some stations are located near irrigated fields and may also report irrigation

Alliston Mount Forest Blyth Guelph Grand Bend Strathroy Woodstock Belmont Simcoe Leamington Chatham West Lorne






Grand Bend - Historical Weather Data
Date Max Temp (°C) Min Temp (°C) Avg Temp (°C) Rain (mm) 7Day Rain(mm) Total Rain(mm) Avg RH (%)
8/17/2018 26.4 18.7 22.2 5.0 20.0 207.8 96.4
8/16/2018 25.0 15.9 20.7 15.0 15.2 202.8 97.6
8/15/2018 29.1 18.4 23.6 0.0 9.0 187.8 81.8
8/14/2018 29.1 14.7 22.4 0.0 39.4 187.8 81.4
8/13/2018 27.8 13.9 21.1 0.0 39.4 187.8 85.1
8/12/2018 26.3 12.3 19.7 0.0 39.4 187.8 88.3
8/11/2018 27.6 11.1 19.2 0.0 39.4 187.8 85.0
8/10/2018 27.8 14.1 20.3 0.2 39.6 187.8 84.3
8/9/2018 28.8 14.0 21.1 8.8 41.8 187.6 90.1
8/8/2018 24.0 16.7 20.2 30.4 33.0 178.8 95.1
8/7/2018 26.8 17.4 22.7 0.0 44.2 148.4 89.8
8/6/2018 30.1 21.1 25.1 0.0 44.4 148.4 81.2
8/5/2018 32.9 15.8 25.0 0.0 44.4 148.4 75.9
8/4/2018 29.7 14.8 22.3 0.2 44.4 148.4 82.2
8/3/2018 30.7 14.9 22.3 2.4 44.2 148.2 84.8
8/2/2018 29.2 15.0 21.7 0.0 52.2 145.8 82.4
8/1/2018 25.2 18.2 20.7 41.6 55.2 145.8 92.8
7/31/2018 28.9 12.7 20.1 0.2 13.6 104.2 87.4
7/30/2018 28.1 11.7 19.5 0.0 20.2 104.0 83.1
7/29/2018 28.7 10.7 19.4 0.0 21.2 104.0 80.4
7/28/2018 24.1 14.0 18.7 0.0 39.2 104.0 84.3
7/27/2018 26.3 15.0 19.6 10.4 43.6 104.0 82.0
7/26/2018 28.6 13.0 20.6 3.0 34.6 93.6 82.8
7/25/2018 25.4 15.6 21.2 0.0 31.6 90.6 86.1
7/24/2018 27.2 17.6 22.1 6.8 31.6 90.6 91.6
7/23/2018 28.3 15.1 21.4 1.0 24.8 83.8 90.0
7/22/2018 19.8 15.6 17.3 18.0 23.8 82.8 98.3
7/21/2018 24.8 19.4 21.3 4.4 5.8 64.8 90.9
7/20/2018 29.9 12.3 21.1 1.4 1.4 60.4 80.3
7/19/2018 29.9 8.7 19.8 0.0 0.0 59.0 66.8
7/18/2018 23.8 10.8 18.1 0.0 0.0 59.0 73.2
7/17/2018 23.9 14.7 20.6 0.0 0.0 59.0 73.7
7/16/2018 32.4 19.2 24.5 0.0 0.0 59.0 82.0
7/15/2018 31.9 18.9 25.5 0.0 0.0 59.0 75.1
7/14/2018 28.8 18.4 24.0 0.0 0.0 59.0 74.2
7/13/2018 33.7 13.5 24.2 0.0 0.0 59.0 57.7
7/12/2018 30.7 10.2 20.9 0.0 0.0 59.0 64.3
7/11/2018 25.2 11.1 18.9 0.0 4.8 59.0 74.6
7/10/2018 23.9 14.6 20.9 0.0 4.8 59.0 68.9
7/9/2018 33.0 10.8 23.3 0.0 4.8 59.0 60.8
7/8/2018 31.5 8.5 20.7 0.0 4.8 59.0 63.8
7/7/2018 26.1 6.5 17.3 0.0 4.8 59.0 68.0
7/6/2018 20.6 10.4 17.5 0.0 4.8 59.0 69.7
7/5/2018 34.1 20.5 26.2 4.8 4.8 59.0 81.1
7/4/2018 34.5 16.2 25.4 0.0 0.0 54.2 66.5
7/3/2018 33.9 11.9 23.9 0.0 10.8 54.2 66.8
7/2/2018 29.8 16.1 25.3 0.0 10.8 54.2 72.2
7/1/2018 34.5 22.1 28.7 0.0 10.8 54.2 66.6
6/30/2018 35.9 22.7 29.0 0.0 21.8 54.2 70.1
6/29/2018 34.2 15.0 25.6 0.0 22.4 54.2 71.2
6/28/2018 29.9 15.1 21.2 0.0 31.0 54.2 82.3
6/27/2018 25.7 15.1 20.4 10.8 31.0 54.2 91.7
6/26/2018 27.6 6.8 18.3 0.0 22.0 43.4 69.9
6/25/2018 22.9 10.2 16.1 0.0 22.0 43.4 76.0
6/24/2018 20.1 13.4 16.9 11.0 40.2 43.4 95.3
6/23/2018 26.0 16.8 19.6 0.6 29.2 32.4 90.1
6/22/2018 25.1 11.3 17.2 8.6 31.8 31.8 70.5
6/21/2018 24.1 9.0 17.6 0.0 23.2 23.2 77.3
6/20/2018 20.7 12.2 16.7 1.8 23.2 23.2 83.1
6/19/2018 24.1 15.0 19.0 0.0 21.4 21.4 82.8
6/18/2018 31.9 17.6 25.3 18.2 21.4 21.4 79.5
6/17/2018 35.9 14.6 26.2 0.0 3.2 3.2 69.7
6/16/2018 28.9 14.9 20.4 3.2 3.2 3.2 73.8
6/15/2018 23.2 6.9 16.4 0.0 0.0 0.0 70.9
6/14/2018 22.1 0.0 17.3 0.0 0.0 0.0 56.3